Location: Alsip
(41.6689°N, 87.7387°W)
Time: 15:06:23
(UTC+00:00)

Gbstr 26 Del rocket - Pass Details

Date: 14 July 2020
Orbit: 492 x 1264 km, 51.8° (Epoch: 13 August)

Event Time Altitude Azimuth Distance (km) Brightness Sun altitude
Rises 03:07:33 0° 240° (WSW) 2,647 6.4 -15.6°
Reaches altitude 10° 03:09:48 10° 242° (WSW) 1,715 5.5 -15.8°
Maximum altitude 03:13:33 69° 326° (NNW) 529 2.9 -16.3°
Drops below altitude 10° 03:17:18 10° 51° (NE) 1,708 5.3 -16.7°
Sets 03:19:33 0° 54° (NE) 2,635 6.3 -17.0°
